#timestamp,LO_Frequency,Hit,StdDev 
1538967615.3,286047001.0,N
1538967635.1,286047000.1,N
1538967655.9,286047000.7,N
1538967675.7,286047000.6,N
1538967695.6,286047002.6,N
1538967715.4,286047000.5,N
1538967735.2,286047000.1,N
1538967755.1,286047000.8,N
1538967756.0,286047000.8,N
1538967775.8,286046998.5,N
1538967795.6,286046999.9,N
1538967815.5,286047000.6,N
1538967835.3,286047011.9,Y
1538967855.2,286047000.6,P
1538967875.9,286046999.9,P
1538967895.7,286046999.0,P
1538967915.6,286046998.3,N
1538967935.4,286046998.5,N
1538967955.3,286046998.2,N
1538967975.1,286047000.5,N
1538967976.0,286047000.5,N
1538967995.8,286046998.4,N
1538968015.7,286046998.2,N
1538968035.5,286047000.9,N
1538968055.3,286047001.1,N
1538968075.2,286046998.5,N
1538968095.0,286047001.2,N
1538968095.9,286047001.2,N
1538968115.8,286047000.6,N
1538968135.6,286047000.5,N
1538968155.4,286047000.8,N
1538968175.3,286047000.6,N
1538968195.1,286046998.5,N
1538968215.9,286046998.6,N
1538968235.7,286046998.1,N
1538968255.5,286046998.3,N
1538968275.4,286046998.5,N
1538968295.2,286047001.0,N
1538968315.1,286046999.8,N
1538968316.0,286046999.8,N
1538968335.8,286047002.8,N
1538968355.6,286046999.8,N
1538968375.5,286046999.7,N
1538968395.3,286046999.9,N
1538968415.1,286047002.5,N
1538968435.9,286047000.2,N
1538968455.7,286047002.8,N
1538968475.6,286047002.4,N
1538968495.4,286047001.6,N
1538968515.2,286047001.9,N
1538968535.1,286047001.7,N
1538968536.0,286047001.7,N
1538968555.8,286047001.6,N
1538968575.7,286047001.5,N
1538968595.5,286047002.4,N
1538968615.4,286046998.6,N
1538968635.3,286046996.5,N
1538968655.1,286046996.9,N
1538968675.9,286046999.0,N
1538968695.7,286046999.8,N
1538968715.5,286046999.7,N
1538968735.4,286047000.9,N
1538968755.2,286047001.2,N
1538968775.1,286047001.1,N
1538968776.0,286047001.1,N
1538968795.8,286046998.6,N
1538968815.6,286046998.1,N
1538968835.5,286046999.2,N
1538968855.3,286046998.6,N
1538968875.1,286047000.4,N
1538968895.9,286047000.7,N
1538968915.7,286046998.6,N
1538968935.6,286046998.3,N
1538968955.4,286047000.6,N
1538968975.2,286046998.1,N
1538968995.1,286046999.9,N
1538968996.0,286046999.9,N
1538969015.8,286047000.7,N
1538969035.6,286047000.6,N
1538969055.5,286047000.3,N
1538969075.3,286047000.1,N
1538969095.2,286046999.8,N
1538969115.9,286046999.9,N
1538969135.7,286047000.9,N
1538969155.6,286047000.0,N
1538969175.4,286047000.2,N
1538969195.2,286047002.5,N
1538969215.1,286047000.6,N
1538969216.0,286047000.6,N
1538969235.8,286047000.4,N
1538969255.7,286046998.1,N
1538969275.5,286046998.3,N
1538969295.3,286046998.7,N
1538969315.2,286046998.6,N
1538969335.0,286047001.2,N
1538969335.9,286047001.2,N
1538969355.7,286046998.2,N
1538969375.6,286046998.2,N
1538969395.4,286047000.6,N
1538969415.3,286047001.0,N
1538969435.1,286047002.4,N
1538969436.0,286047002.4,N
1538969455.8,286047002.6,N
1538969475.7,286047001.4,N
1538969495.5,286047003.8,N
1538969515.3,286047003.8,N
1538969535.2,286047001.6,N
1538969555.0,286047001.6,N
1538969555.9,286047001.6,N
1538969575.8,286047002.2,N
1538969595.6,286047001.5,N
1538969615.4,286047004.3,N
1538969635.3,286047004.4,N
1538969655.1,286047003.2,N
1538969675.8,286047003.3,N
1538969695.7,286047003.0,N
1538969715.5,286047003.5,N
1538969735.4,286047003.9,N
1538969755.2,286047001.7,N
1538969775.0,286047004.0,N
1538969775.9,286047004.0,N
1538969795.8,286047003.8,N
1538969815.6,286047003.0,N
1538969835.5,286047004.2,N
1538969855.3,286047003.1,N
1538969875.1,286047003.8,N
1538969895.9,286047003.3,N
1538969915.7,286047003.7,N
1538969935.5,286047001.4,N
1538969955.4,286047004.4,Y
1538969975.2,286047000.8,P
1538969995.1,286046998.1,N
1538969996.0,286046998.1,N
1538970015.8,286046998.1,N
1538970035.6,286046998.2,N
1538970055.5,286046998.3,N
1538970075.3,286046998.7,N
1538970095.2,286047000.9,N
1538970115.9,286047000.8,N
1538970135.7,286046998.3,N
1538970155.6,286046998.9,N
1538970175.4,286046998.2,N
1538970195.2,286046998.7,N
1538970215.1,286046999.4,N
1538970216.0,286046999.4,N
1538970235.8,286046998.3,N
1538970255.7,286046998.5,N
1538970275.5,286046998.2,N
1538970295.3,286047000.8,N
1538970315.2,286047000.8,N
1538970335.0,286046998.5,N
1538970335.9,286046998.5,N
1538970355.8,286046999.7,N
1538970375.6,286046998.6,N
1538970395.4,286047001.1,N
1538970415.3,286047000.9,N
1538970435.1,286046998.5,N
1538970455.8,286046998.2,N
1538970475.7,286046999.3,N
1538970495.5,286047001.2,N
1538970515.4,286046999.4,N
1538970535.2,286046998.8,N
1538970555.0,286046996.9,N
1538970555.9,286046996.9,N
1538970575.8,286046998.3,N
1538970595.6,286046998.3,N
1538970615.5,286046998.7,N
1538970635.3,286046998.9,N
1538970655.1,286046999.1,N
1538970675.9,286046997.1,N
1538970695.7,286046997.3,N
1538970715.6,286046997.7,N
1538970735.4,286046997.2,N
1538970755.2,286046996.5,N
1538970775.1,286046997.1,N
1538970776.0,286046997.1,N
1538970795.8,286046998.9,N
1538970815.7,286046996.7,N
1538970835.5,286046996.7,N
1538970855.3,286046996.8,N
1538970875.2,286046997.3,N
1538970895.0,286046997.3,N
1538970895.9,286046997.3,N
1538970915.8,286046997.9,N
1538970935.6,286046997.6,N
1538970955.4,286046995.5,Y
1538970975.3,286046999.1,P
1538970995.1,286046998.2,P
1538971015.9,286046999.5,N
1538971035.7,286046998.1,Y
1538971055.5,286047000.3,P
1538971075.4,286046999.9,N
1538971095.2,286047000.7,N
1538971115.0,286047000.6,N
1538971116.0,286047000.6,N
1538971135.8,286047001.0,N
1538971155.5,286047000.7,N
1538971175.3,286047000.8,N
1538971195.2,286047000.4,N
